Time,TemperatureF,DewpointF,PressureIn,WindDirection,WindDirectionDegrees,WindSpeedMPH,WindSpeedGustMPH,Humidity,HourlyPrecipIn,Conditions,Clouds,dailyrainin,SoftwareType,DateUTC
2013-07-07 00:11:00,73.6,70.0,30.02,ESE,120,0.0,0.0,89,0.00,,,0.00,weatherlink.com 1.10,2013-07-07 05:11:00,
2013-07-07 00:26:00,73.4,70.0,30.03,ESE,120,0.0,0.0,89,0.00,,,0.00,weatherlink.com 1.10,2013-07-07 05:26:00,
2013-07-07 00:41:00,73.1,70.0,30.03,ESE,120,0.0,0.0,90,0.00,,,0.00,weatherlink.com 1.10,2013-07-07 05:41:00,
2013-07-07 00:56:00,72.8,70.0,30.02,ESE,120,0.0,0.0,91,0.00,,,0.00,weatherlink.com 1.10,2013-07-07 05:56:00,
2013-07-07 01:11:00,72.5,70.0,30.02,ESE,120,0.0,0.0,91,0.00,,,0.00,weatherlink.com 1.10,2013-07-07 06:11:00,
2013-07-07 01:26:00,72.3,70.0,30.02,ESE,120,0.0,0.0,92,0.00,,,0.00,weatherlink.com 1.10,2013-07-07 06:26:00,
2013-07-07 01:41:00,72.1,70.0,30.02,ESE,120,0.0,0.0,92,0.00,,,0.00,weatherlink.com 1.10,2013-07-07 06:41:00,
2013-07-07 01:56:00,71.9,70.0,30.02,ESE,120,0.0,0.0,93,0.00,,,0.00,weatherlink.com 1.10,2013-07-07 06:56:00,
2013-07-07 02:11:00,71.7,70.0,30.02,ESE,120,0.0,0.0,93,0.00,,,0.00,weatherlink.com 1.10,2013-07-07 07:11:00,
2013-07-07 02:26:00,71.5,70.0,30.02,ESE,120,0.0,0.0,94,0.00,,,0.00,weatherlink.com 1.10,2013-07-07 07:26:00,
2013-07-07 02:41:00,71.4,70.0,30.02,ESE,120,0.0,0.0,94,0.00,,,0.00,weatherlink.com 1.10,2013-07-07 07:41:00,
2013-07-07 02:56:00,71.3,70.0,30.02,ESE,120,0.0,0.0,94,0.00,,,0.00,weatherlink.com 1.10,2013-07-07 07:56:00,
2013-07-07 03:11:00,71.0,69.0,30.02,ESE,120,0.0,0.0,94,0.00,,,0.00,weatherlink.com 1.10,2013-07-07 08:11:00,
2013-07-07 03:26:00,70.8,69.0,30.02,ESE,120,0.0,0.0,94,0.00,,,0.00,weatherlink.com 1.10,2013-07-07 08:26:00,
2013-07-07 03:41:00,70.7,69.0,30.02,ESE,120,0.0,0.0,95,0.00,,,0.00,weatherlink.com 1.10,2013-07-07 08:41:00,
2013-07-07 03:56:00,70.7,69.0,30.02,ESE,120,0.0,0.0,95,0.00,,,0.00,weatherlink.com 1.10,2013-07-07 08:56:00,
2013-07-07 04:11:00,70.6,69.0,30.02,ESE,120,0.0,0.0,95,0.00,,,0.00,weatherlink.com 1.10,2013-07-07 09:11:00,
2013-07-07 04:26:00,70.5,69.0,30.02,ESE,120,0.0,0.0,95,0.00,,,0.00,weatherlink.com 1.10,2013-07-07 09:26:00,
2013-07-07 04:41:00,70.3,69.0,30.03,ESE,120,0.0,0.0,95,0.00,,,0.00,weatherlink.com 1.10,2013-07-07 09:41:00,
2013-07-07 04:56:00,70.2,69.0,30.03,ESE,120,0.0,0.0,96,0.00,,,0.00,weatherlink.com 1.10,2013-07-07 09:56:00,
2013-07-07 05:11:00,69.9,69.0,30.03,ESE,120,0.0,0.0,96,0.00,,,0.00,weatherlink.com 1.10,2013-07-07 10:11:00,
2013-07-07 05:26:00,69.7,69.0,30.03,ESE,120,0.0,0.0,96,0.00,,,0.00,weatherlink.com 1.10,2013-07-07 10:26:00,
2013-07-07 05:41:00,69.7,69.0,30.04,ESE,120,0.0,0.0,96,0.00,,,0.00,weatherlink.com 1.10,2013-07-07 10:41:00,
2013-07-07 05:56:00,69.6,69.0,30.04,ESE,120,0.0,0.0,96,0.00,,,0.00,weatherlink.com 1.10,2013-07-07 10:56:00,
2013-07-07 06:11:00,69.6,69.0,30.04,ESE,120,0.0,0.0,96,0.00,,,0.00,weatherlink.com 1.10,2013-07-07 11:11:00,
2013-07-07 06:26:00,69.9,69.0,30.05,ESE,120,0.0,0.0,97,0.00,,,0.00,weatherlink.com 1.10,2013-07-07 11:26:00,
2013-07-07 06:41:00,70.6,70.0,30.05,ESE,120,0.0,0.0,97,0.00,,,0.00,weatherlink.com 1.10,2013-07-07 11:41:00,
2013-07-07 06:56:00,71.2,70.0,30.05,ESE,120,0.0,0.0,97,0.00,,,0.00,weatherlink.com 1.10,2013-07-07 11:56:00,
2013-07-07 07:11:00,71.7,71.0,30.06,ESE,120,0.0,0.0,97,0.00,,,0.00,weatherlink.com 1.10,2013-07-07 12:11:00,
2013-07-07 07:26:00,72.0,71.0,30.06,North,356,0.0,1.0,96,0.00,,,0.00,weatherlink.com 1.10,2013-07-07 12:26:00,
2013-07-07 07:41:00,72.7,72.0,30.07,North,356,0.0,0.0,96,0.00,,,0.00,weatherlink.com 1.10,2013-07-07 12:41:00,
2013-07-07 07:56:00,73.4,72.0,30.07,North,356,0.0,0.0,94,0.00,,,0.00,weatherlink.com 1.10,2013-07-07 12:56:00,
2013-07-07 08:11:00,74.4,72.0,30.07,North,356,0.0,1.0,92,0.00,,,0.00,weatherlink.com 1.10,2013-07-07 13:11:00,
2013-07-07 08:27:00,76.1,73.0,30.07,North,356,0.0,1.0,89,0.00,,,0.00,weatherlink.com 1.10,2013-07-07 13:27:00,
2013-07-07 08:42:00,78.7,74.0,30.08,North,356,0.0,0.0,84,0.00,,,0.00,weatherlink.com 1.10,2013-07-07 13:42:00,
2013-07-07 08:57:00,81.5,75.0,30.08,North,354,0.0,1.0,81,0.00,,,0.00,weatherlink.com 1.10,2013-07-07 13:57:00,
2013-07-07 09:12:00,83.0,75.0,30.08,North,354,0.0,1.0,76,0.00,,,0.00,weatherlink.com 1.10,2013-07-07 14:12:00,
2013-07-07 09:27:00,82.8,74.0,30.08,NNW,331,0.0,1.0,75,0.00,,,0.00,weatherlink.com 1.10,2013-07-07 14:27:00,
2013-07-07 09:42:00,82.6,74.0,30.08,West,260,0.0,1.0,75,0.00,,,0.00,weatherlink.com 1.10,2013-07-07 14:42:00,
2013-07-07 09:57:00,83.3,75.0,30.07,NNE,26,0.0,2.0,75,0.00,,,0.00,weatherlink.com 1.10,2013-07-07 14:57:00,
2013-07-07 10:12:00,83.3,75.0,30.07,WNW,287,0.0,1.0,75,0.00,,,0.00,weatherlink.com 1.10,2013-07-07 15:12:00,
2013-07-07 10:27:00,84.3,75.0,30.08,NW,308,0.0,0.0,74,0.00,,,0.00,weatherlink.com 1.10,2013-07-07 15:27:00,
2013-07-07 10:42:00,85.3,76.0,30.07,NNW,343,0.0,3.0,73,0.00,,,0.00,weatherlink.com 1.10,2013-07-07 15:42:00,
2013-07-07 10:57:00,86.1,77.0,30.08,North,10,0.0,1.0,73,0.00,,,0.00,weatherlink.com 1.10,2013-07-07 15:57:00,
2013-07-07 11:12:00,86.1,76.0,30.08,North,10,1.0,2.0,72,0.00,,,0.00,weatherlink.com 1.10,2013-07-07 16:12:00,
2013-07-07 11:27:00,87.1,76.0,30.08,North,8,0.0,2.0,70,0.00,,,0.00,weatherlink.com 1.10,2013-07-07 16:27:00,
2013-07-07 11:42:00,87.9,76.0,30.08,North,358,0.0,1.0,68,0.00,,,0.00,weatherlink.com 1.10,2013-07-07 16:42:00,
2013-07-07 11:57:00,88.7,76.0,30.08,SE,134,0.0,2.0,67,0.00,,,0.00,weatherlink.com 1.10,2013-07-07 16:57:00,
2013-07-07 12:12:00,89.5,75.0,30.07,North,9,0.0,2.0,63,0.00,,,0.00,weatherlink.com 1.10,2013-07-07 17:12:00,
2013-07-07 12:27:00,89.6,75.0,30.07,North,4,0.0,2.0,63,0.00,,,0.00,weatherlink.com 1.10,2013-07-07 17:27:00,
2013-07-07 12:57:00,90.6,75.0,30.06,WNW,293,0.0,3.0,60,0.00,,,0.00,weatherlink.com 1.10,2013-07-07 17:57:00,
2013-07-07 13:12:00,90.4,75.0,30.06,WSW,241,0.0,2.0,61,0.00,,,0.00,weatherlink.com 1.10,2013-07-07 18:12:00,
2013-07-07 13:27:00,89.3,75.0,30.06,East,82,1.0,4.0,63,0.00,,,0.00,weatherlink.com 1.10,2013-07-07 18:27:00,
2013-07-07 13:42:00,88.9,74.0,30.05,WSW,239,1.0,3.0,61,0.00,,,0.00,weatherlink.com 1.10,2013-07-07 18:42:00,
2013-07-07 13:57:00,89.9,74.0,30.05,SW,222,0.0,2.0,60,0.00,,,0.00,weatherlink.com 1.10,2013-07-07 18:57:00,
2013-07-07 14:12:00,91.2,76.0,30.05,NE,44,1.0,3.0,62,0.00,,,0.00,weatherlink.com 1.10,2013-07-07 19:12:00,
2013-07-07 14:27:00,90.7,76.0,30.05,West,264,0.0,3.0,62,0.00,,,0.00,weatherlink.com 1.10,2013-07-07 19:27:00,
2013-07-07 14:42:00,89.7,74.0,30.04,North,11,0.0,3.0,61,0.00,,,0.00,weatherlink.com 1.10,2013-07-07 19:42:00,
2013-07-07 14:57:00,88.8,75.0,30.04,NE,43,0.0,1.0,64,0.00,,,0.00,weatherlink.com 1.10,2013-07-07 19:57:00,
2013-07-07 15:12:00,90.0,76.0,30.04,NW,310,0.0,2.0,63,0.00,,,0.00,weatherlink.com 1.10,2013-07-07 20:12:00,
2013-07-07 15:27:00,91.1,75.0,30.04,SE,125,0.0,1.0,60,0.00,,,0.00,weatherlink.com 1.10,2013-07-07 20:27:00,
2013-07-07 15:42:00,91.6,75.0,30.03,SW,226,0.0,3.0,59,0.00,,,0.00,weatherlink.com 1.10,2013-07-07 20:42:00,
2013-07-07 15:57:00,92.5,75.0,30.03,SW,225,0.0,1.0,57,0.00,,,0.00,weatherlink.com 1.10,2013-07-07 20:57:00,
2013-07-07 16:12:00,93.2,75.0,30.02,NW,314,0.0,1.0,56,0.00,,,0.00,weatherlink.com 1.10,2013-07-07 21:12:00,
2013-07-07 16:28:00,92.9,76.0,30.02,SSE,166,0.0,2.0,58,0.00,,,0.00,weatherlink.com 1.10,2013-07-07 21:28:00,
2013-07-07 16:43:00,93.4,75.0,30.02,ENE,72,0.0,1.0,55,0.00,,,0.00,weatherlink.com 1.10,2013-07-07 21:43:00,
2013-07-07 16:58:00,93.6,76.0,30.01,NNW,343,0.0,1.0,56,0.00,,,0.00,weatherlink.com 1.10,2013-07-07 21:58:00,
2013-07-07 17:13:00,93.7,75.0,30.01,NNE,28,1.0,1.0,54,0.00,,,0.00,weatherlink.com 1.10,2013-07-07 22:13:00,
2013-07-07 17:28:00,93.8,75.0,30.01,NE,46,0.0,1.0,55,0.00,,,0.00,weatherlink.com 1.10,2013-07-07 22:28:00,
2013-07-07 17:43:00,93.4,75.0,30.01,NE,46,0.0,1.0,56,0.00,,,0.00,weatherlink.com 1.10,2013-07-07 22:43:00,
2013-07-07 17:58:00,92.8,75.0,30.01,NE,49,0.0,1.0,57,0.00,,,0.00,weatherlink.com 1.10,2013-07-07 22:58:00,
2013-07-07 18:13:00,92.6,75.0,30.01,ENE,62,0.0,1.0,57,0.00,,,0.00,weatherlink.com 1.10,2013-07-07 23:13:00,
2013-07-07 18:28:00,93.1,76.0,30.01,ENE,62,0.0,1.0,57,0.00,,,0.00,weatherlink.com 1.10,2013-07-07 23:28:00,
2013-07-07 18:43:00,92.8,76.0,30.01,ENE,62,0.0,1.0,59,0.00,,,0.00,weatherlink.com 1.10,2013-07-07 23:43:00,
2013-07-07 18:58:00,92.1,75.0,30.01,ENE,63,0.0,1.0,58,0.00,,,0.00,weatherlink.com 1.10,2013-07-07 23:58:00,
2013-07-07 19:13:00,91.2,75.0,30.02,ENE,63,0.0,0.0,60,0.00,,,0.00,weatherlink.com 1.10,2013-07-08 00:13:00,
2013-07-07 19:28:00,90.3,75.0,30.02,ENE,62,0.0,1.0,61,0.00,,,0.00,weatherlink.com 1.10,2013-07-08 00:28:00,
2013-07-07 19:43:00,88.5,75.0,30.02,ENE,63,0.0,0.0,64,0.00,,,0.00,weatherlink.com 1.10,2013-07-08 00:43:00,
2013-07-07 19:58:00,86.1,73.0,30.02,ENE,62,0.0,0.0,66,0.00,,,0.00,weatherlink.com 1.10,2013-07-08 00:58:00,
2013-07-07 20:13:00,83.1,73.0,30.03,ENE,63,0.0,0.0,71,0.00,,,0.00,weatherlink.com 1.10,2013-07-08 01:13:00,
2013-07-07 20:28:00,81.0,72.0,30.03,ENE,62,0.0,0.0,75,0.00,,,0.00,weatherlink.com 1.10,2013-07-08 01:28:00,
2013-07-07 20:43:00,79.8,72.0,30.03,ENE,62,0.0,0.0,78,0.00,,,0.00,weatherlink.com 1.10,2013-07-08 01:43:00,
2013-07-07 20:58:00,78.9,72.0,30.04,ENE,63,0.0,0.0,80,0.00,,,0.00,weatherlink.com 1.10,2013-07-08 01:58:00,
2013-07-07 21:13:00,78.3,72.0,30.04,ENE,63,0.0,0.0,81,0.00,,,0.00,weatherlink.com 1.10,2013-07-08 02:13:00,
2013-07-07 21:28:00,77.8,72.0,30.05,ENE,63,0.0,0.0,82,0.00,,,0.00,weatherlink.com 1.10,2013-07-08 02:28:00,
2013-07-07 21:43:00,77.4,72.0,30.05,ENE,62,0.0,0.0,83,0.00,,,0.00,weatherlink.com 1.10,2013-07-08 02:43:00,
2013-07-07 21:58:00,76.9,72.0,30.05,ENE,62,0.0,0.0,84,0.00,,,0.00,weatherlink.com 1.10,2013-07-08 02:58:00,
2013-07-07 22:13:00,76.6,72.0,30.05,ENE,63,0.0,0.0,85,0.00,,,0.00,weatherlink.com 1.10,2013-07-08 03:13:00,
2013-07-07 22:28:00,76.3,72.0,30.05,ENE,62,0.0,0.0,85,0.00,,,0.00,weatherlink.com 1.10,2013-07-08 03:28:00,
2013-07-07 22:43:00,76.1,72.0,30.05,ENE,62,0.0,0.0,86,0.00,,,0.00,weatherlink.com 1.10,2013-07-08 03:43:00,
2013-07-07 22:58:00,75.8,71.0,30.06,ENE,63,0.0,0.0,86,0.00,,,0.00,weatherlink.com 1.10,2013-07-08 03:58:00,
2013-07-07 23:28:00,75.8,72.0,30.06,ENE,63,0.0,0.0,88,0.00,,,0.00,weatherlink.com 1.10,2013-07-08 04:28:00,
2013-07-07 23:43:00,75.9,73.0,30.07,ENE,63,0.0,0.0,89,0.00,,,0.00,weatherlink.com 1.10,2013-07-08 04:43:00,
2013-07-07 23:58:00,75.7,72.0,30.06,ENE,62,0.0,0.0,89,0.00,,,0.00,weatherlink.com 1.10,2013-07-08 04:58:00,